Tomahawk, WI

8:37 AM CDT on July 26, 2017 (GMT -0500)
Tomahawk

Weather History for KTKV - January, 2013

Change the Weather History Date:

Monday, January 21, 2013

  Actual Average (KRHI) Record (KRHI)
Temperature  
Mean Temperature -13 °F -  
Max Temperature -4 °F 25 °F 46 °F (1908)
Min Temperature -22 °F 2 °F -30 °F (1924)
Degree Days  
Heating Degree Days 78    
Moisture  
Dew Point -20 °F    
Average Humidity 67    
Maximum Humidity 84    
Minimum Humidity 45    
Precipitation  
Precipitation 0.00 in - - ()
Sea Level Pressure  
Sea Level Pressure 30.07 in    
Wind  
Wind Speed 7 mph (WNW)    
Max Wind Speed 16 mph    
Max Gust Speed 24 mph    
Visibility 9 miles    
Events      
Averages and records for this station are not official NWS values.
T = Trace of Precipitation, MM = Missing Value Source: NWS Daily Summary

Daily Weather History Graph

Daily Weather History Graph

Search for Another Location

Airport or City:

Trip Planner

Search our weather history database for the weather conditions in past years. The results will help you decide how hot, cold, wet, or windy it might be!

Date:

Astronomy

Jan. 21, 2013 Rise Set
Actual Time 7:31 AM CST 4:50 PM CST
Civil Twilight 6:58 AM CST 5:23 PM CST
Nautical Twilight 6:22 AM CST 5:59 PM CST
Astronomical Twilight 5:47 AM CST 6:34 PM CST
Moon 12:29 PM CST (1/21) 2:59 AM CST (1/21)
Length of Visible Light 10h 24m
Length of Day
9h 19m
Waxing Gibbous, 75% of the Moon is Illuminated
Jan 21
Waxing Gibbous
Jan 26
Full
Feb 3
Last Quarter
Feb 10
New
Feb 17
First Quarter

Hourly Weather History & Observations

Time (CST) Temp. Windchill Dew Point Humidity Pressure Visibility Wind Dir Wind Speed Gust Speed Precip Events Conditions
12:15 AM -5.8 °F -14.5 °F -9.4 °F 84% 30.06 in 10.0 mi West 3.5 mph - N/A   Mostly Cloudy
12:35 AM -5.8 °F - -9.4 °F 84% 30.05 in 7.0 mi Calm Calm - N/A   Overcast
12:55 AM -4.0 °F - -9.4 °F 78% 30.04 in 7.0 mi Calm Calm - N/A   Overcast
1:15 AM -4.0 °F - -9.4 °F 78% 30.04 in 5.0 mi Calm Calm - N/A   Haze
1:35 AM -5.8 °F - -9.4 °F 84% 30.04 in 3.0 mi Calm Calm - N/A   Overcast
1:55 AM -5.8 °F -16.7 °F -11.2 °F 77% 30.04 in 4.0 mi West 4.6 mph - N/A   Haze
2:15 AM -5.8 °F -18.4 °F -11.2 °F 77% 30.04 in 7.0 mi West 5.8 mph - N/A   Overcast
2:35 AM -5.8 °F -22.4 °F -9.4 °F 84% 30.04 in 7.0 mi WNW 9.2 mph - N/A   Overcast
2:55 AM -4.0 °F -20.2 °F -9.4 °F 78% 30.03 in 5.0 mi WNW 9.2 mph 17.3 mph N/A   Haze
3:15 AM -5.8 °F -23.4 °F -11.2 °F 77% 30.03 in 10.0 mi WNW 10.4 mph 16.1 mph N/A   Overcast
3:35 AM -5.8 °F -21.2 °F -13.0 °F 71% 30.04 in 10.0 mi WNW 8.1 mph 16.1 mph N/A   Overcast
3:55 AM -7.6 °F -23.4 °F -13.0 °F 77% 30.04 in 10.0 mi WNW 8.1 mph - N/A   Scattered Clouds
4:15 AM -7.6 °F -24.6 °F -14.8 °F 71% 30.03 in 10.0 mi WNW 9.2 mph 16.1 mph N/A   Clear
4:35 AM -9.4 °F -28.9 °F -14.8 °F 77% 30.03 in 7.0 mi West 11.5 mph - N/A   Clear
4:55 AM -9.4 °F -29.8 °F -16.6 °F 71% 30.04 in 10.0 mi WNW 12.7 mph 18.4 mph N/A   Clear
5:15 AM -9.4 °F -27.9 °F -16.6 °F 71% 30.04 in 10.0 mi West 10.4 mph - N/A   Clear
5:35 AM -9.4 °F -25.6 °F -16.6 °F 71% 30.04 in 10.0 mi West 8.1 mph 16.1 mph N/A   Clear
5:55 AM -11.2 °F -30.1 °F -16.6 °F 77% 30.04 in 10.0 mi West 10.4 mph - N/A   Clear
6:15 AM -11.2 °F -26.4 °F -16.6 °F 77% 30.04 in 7.0 mi West 6.9 mph - N/A   Clear
6:35 AM -13.0 °F -32.4 °F -18.4 °F 77% 30.04 in 10.0 mi West 10.4 mph 19.6 mph N/A   Scattered Clouds
6:55 AM -13.0 °F -28.6 °F -18.4 °F 77% 30.04 in 10.0 mi West 6.9 mph - N/A   Scattered Clouds
7:15 AM -13.0 °F -32.4 °F -20.2 °F 70% 30.04 in 10.0 mi West 10.4 mph - N/A   Scattered Clouds
7:35 AM -13.0 °F -28.6 °F -22.0 °F 64% 30.04 in 10.0 mi WNW 6.9 mph - N/A   Clear
7:55 AM -13.0 °F -31.3 °F -22.0 °F 64% 30.05 in 10.0 mi WNW 9.2 mph 19.6 mph N/A   Clear
8:15 AM -13.0 °F -31.3 °F -22.0 °F 64% 30.06 in 10.0 mi WNW 9.2 mph - N/A   Clear
8:35 AM -13.0 °F -35.2 °F -20.2 °F 70% 30.07 in 10.0 mi WNW 13.8 mph 19.6 mph N/A   Clear
8:55 AM -13.0 °F -32.4 °F -22.0 °F 64% 30.07 in 10.0 mi WNW 10.4 mph 19.6 mph N/A   Clear
9:15 AM -13.0 °F -34.3 °F -22.0 °F 64% 30.08 in 7.0 mi WNW 12.7 mph 23.0 mph N/A   Scattered Clouds
9:35 AM -13.0 °F -35.2 °F -22.0 °F 64% 30.08 in 5.0 mi WNW 13.8 mph 20.7 mph N/A   Haze
9:55 AM -13.0 °F -34.3 °F -22.0 °F 64% 30.09 in 5.0 mi West 12.7 mph 19.6 mph N/A   Haze
10:15 AM -11.2 °F -31.1 °F -22.0 °F 59% 30.09 in 7.0 mi West 11.5 mph 20.7 mph N/A   Overcast
10:35 AM -11.2 °F -30.1 °F -23.8 °F 54% 30.09 in 7.0 mi NW 10.4 mph 20.7 mph N/A   Overcast
10:55 AM -9.4 °F -29.8 °F -22.0 °F 54% 30.09 in 5.0 mi WNW 12.7 mph 18.4 mph N/A   Haze
11:15 AM -9.4 °F -29.8 °F -22.0 °F 54% 30.09 in 7.0 mi West 12.7 mph - N/A   Mostly Cloudy
11:35 AM -9.4 °F -29.8 °F -22.0 °F 54% 30.08 in 5.0 mi WNW 12.7 mph - N/A   Haze
11:55 AM -9.4 °F -27.9 °F -23.8 °F 49% 30.07 in 10.0 mi WNW 10.4 mph 18.4 mph N/A   Mostly Cloudy
12:15 PM -9.4 °F -27.9 °F -23.8 °F 49% 30.07 in 10.0 mi West 10.4 mph - N/A   Overcast
12:35 PM -9.4 °F -29.8 °F -23.8 °F 49% 30.07 in 10.0 mi WNW 12.7 mph - N/A   Overcast
12:55 PM -9.4 °F -32.1 °F -23.8 °F 49% 30.07 in 7.0 mi West 16.1 mph 20.7 mph N/A   Mostly Cloudy
1:15 PM -9.4 °F -29.8 °F -22.0 °F 54% 30.06 in 10.0 mi West 12.7 mph 16.1 mph N/A   Overcast
1:35 PM -9.4 °F -30.6 °F -22.0 °F 54% 30.05 in 7.0 mi WNW 13.8 mph 18.4 mph N/A   Overcast
1:55 PM -9.4 °F -30.6 °F -22.0 °F 54% 30.05 in 10.0 mi WNW 13.8 mph 18.4 mph N/A   Mostly Cloudy
2:15 PM -7.6 °F -29.8 °F -23.8 °F 45% 30.06 in 10.0 mi West 16.1 mph 24.2 mph N/A   Mostly Cloudy
2:35 PM -9.4 °F -30.6 °F -23.8 °F 49% 30.06 in 10.0 mi WNW 13.8 mph 19.6 mph N/A   Scattered Clouds
2:55 PM -9.4 °F -27.9 °F -23.8 °F 49% 30.07 in 10.0 mi West 10.4 mph 20.7 mph N/A   Mostly Cloudy
3:15 PM -9.4 °F -31.4 °F -23.8 °F 49% 30.07 in 10.0 mi WNW 15.0 mph 21.9 mph N/A   Mostly Cloudy
3:35 PM -9.4 °F -26.8 °F -23.8 °F 49% 30.07 in 10.0 mi West 9.2 mph 18.4 mph N/A   Scattered Clouds
3:55 PM -9.4 °F -31.4 °F -25.6 °F 45% 30.08 in 10.0 mi West 15.0 mph 19.6 mph N/A   Clear
4:15 PM -11.2 °F -29.0 °F -23.8 °F 54% 30.08 in 10.0 mi WNW 9.2 mph - N/A   Clear
4:35 PM -11.2 °F -27.8 °F -23.8 °F 54% 30.08 in 10.0 mi WNW 8.1 mph - N/A   Clear
5:15 PM -13.0 °F -27.0 °F -22.0 °F 64% 30.08 in 10.0 mi WNW 5.8 mph - N/A   Clear
5:35 PM -13.0 °F -27.0 °F -22.0 °F 64% 30.09 in 10.0 mi WNW 5.8 mph - N/A   Clear
5:55 PM -14.8 °F -24.8 °F -22.0 °F 70% 30.09 in 10.0 mi West 3.5 mph - N/A   Clear
6:15 PM -14.8 °F -24.8 °F -22.0 °F 70% 30.10 in 10.0 mi West 3.5 mph - N/A   Clear
6:55 PM -18.4 °F - -23.8 °F 76% 30.10 in 10.0 mi Calm Calm - N/A   Clear
7:15 PM -16.6 °F - -23.8 °F 70% 30.10 in 10.0 mi Calm Calm - N/A   Clear
7:35 PM -18.4 °F - -25.6 °F 70% 30.11 in 10.0 mi Calm Calm - N/A   Clear
7:55 PM -20.2 °F - -25.6 °F 76% 30.11 in 10.0 mi Calm Calm - N/A   Clear
8:15 PM -22.0 °F - -27.4 °F 76% 30.11 in 7.0 mi Calm Calm - N/A   Clear
8:35 PM -20.2 °F - -25.6 °F 76% 30.11 in 7.0 mi Calm Calm - N/A   Clear
8:55 PM -22.0 °F - -27.4 °F 76% 30.12 in 7.0 mi Calm Calm - N/A   Clear
9:15 PM -20.2 °F -30.9 °F -25.6 °F 76% 30.12 in 10.0 mi West 3.5 mph - N/A   Clear
9:35 PM -18.4 °F -33.4 °F -23.8 °F 76% 30.12 in 10.0 mi West 5.8 mph - N/A   Clear
9:55 PM -16.6 °F -29.3 °F -23.8 °F 70% 30.12 in 10.0 mi West 4.6 mph - N/A   Clear
10:15 PM -18.4 °F -31.4 °F -23.8 °F 76% 30.12 in 10.0 mi West 4.6 mph - N/A   Clear
10:35 PM -16.6 °F -31.3 °F -23.8 °F 70% 30.12 in 10.0 mi West 5.8 mph - N/A   Clear
10:55 PM -16.6 °F -31.3 °F -23.8 °F 70% 30.12 in 10.0 mi West 5.8 mph - N/A   Clear
11:35 PM -18.4 °F - -23.8 °F 76% 30.12 in 10.0 mi Calm Calm - N/A   Clear
11:55 PM -16.6 °F -26.8 °F -23.8 °F 70% 30.12 in 10.0 mi West 3.5 mph - N/A   Clear